GOES 19

Last updated on Tue Sep 22 2026 00:02:54 GMT+0000 (Coordinated Universal Time)

1 60133U 24119A 26264.45578970 -.00000252 00000+0 00000+0 0 9993 2 60133 0.0430 355.3649 0000236 263.7149 190.1605 1.00273039 7925
UTC large
Height (km)
Speed (km/s)
/
Latitude / Longitude
Inclination (degrees)
Orbital Period (minutes)
Azimuth
Elevation
Range (km)
Doppler Factor

Next 0 passes for location: London (51.5072 / 0.1276)

No passes found over London.
GOES 19